Hourly Data Report for June 21, 2020

TORONTO CITY
ONTARIO
Current Station Operator: ECCC - MSC

43°40'00.000" N
79°24'00.000" W
112.50 m
6158355
71508
XTO

Download Data

Hourly Data (June 2020)
Hourly Data Report for June 21, 2020
TIME
LST
Temp Definition
°C
Dew Point Definition
°C
Rel Hum Definition
%
Precip. Amount Definition
mm

Wind Dir Definition
10's deg

Wind Spd Definition
km/h
Visibility Definition
km
Stn Press Definition
kPa
Hmdx Definition


Wind Chill Definition


Weather Definition


00:00 22.5 15.0 63 0.0       100.05 26   LegendNANA
01:00 22.6 16.4 68 0.0       100.00 27   LegendNANA
02:00 21.1 16.4 75 0.0       99.95 26   LegendNANA
03:00 21.0 17.1 79 0.0       99.94 26   LegendNANA
04:00 20.9 16.0 74 0.0       99.96 26   LegendNANA
05:00 20.5 16.1 76 0.0       99.98 25   LegendNANA
06:00 20.9 16.6 77 0.0       100.00 26   LegendNANA
07:00 23.2 15.3 61 0.0       100.02 27   LegendNANA
08:00 25.1 15.7 56 0.0       100.02 30   LegendNANA
09:00 26.1 15.2 51 0.0       100.02 30   LegendNANA
10:00 26.5 16.0 53 0.0       100.01 31   LegendNANA
11:00 27.7 16.2 49 0.0       100.00 32   LegendNANA
12:00 28.0 15.5 47 0.0       99.99 32   LegendNANA
13:00 28.7 16.1 47 0.0       99.96 33   LegendNANA
14:00 28.9 16.1 46 0.0       99.89 34   LegendNANA
15:00 28.0 16.5 50 0.0       99.83 33   LegendNANA
16:00 27.4 16.0 50 0.2       99.78 32   LegendNANA
17:00 27.6 16.6 51 0.2       99.76 33   LegendNANA
18:00 28.0 16.4 49 0.0       99.80 33   LegendNANA
19:00 27.0 17.1 55 0.0       99.80 32   LegendNANA
20:00 26.8 16.3 53 0.0       99.79 32   LegendNANA
21:00 25.7 16.4 57 0.0       99.81 31   LegendNANA
22:00 24.8 16.7 61 0.0       99.82 30   LegendNANA
23:00 23.9 17.0 65 0.0       99.84 29   LegendNANA

Notes on Data Quality.

Legend

  • E = Estimated
  • M = Missing
  • NA = Not Available*
  • [empty] = Indicates an unobserved value
Date modified: